Friday Harbor, WA

5:57 AM PST on February 09, 2016 (GMT -0800)
Friday Harbor

Weather History for KFHR - August, 2014

Change the Weather History Date:

Saturday, August 23, 2014

  Actual Average Record
Temperature  
Mean Temperature 60 °F -  
Max Temperature 73 °F 69 °F 80 °F (1996)
Min Temperature 48 °F 48 °F 42 °F (2003)
Degree Days  
Heating Degree Days 5    
Growing Degree Days 10 (Base 50)    
Moisture  
Dew Point 52 °F    
Average Humidity 85    
Maximum Humidity 100    
Minimum Humidity 55    
Precipitation  
Precipitation 0.00 in - - ()
Sea Level Pressure  
Sea Level Pressure 30.11 in    
Wind  
Wind Speed 1 mph (SSE)    
Max Wind Speed 7 mph    
Max Gust Speed -    
Visibility 6 miles    
Events Fog    
Averages and records for this station are not official NWS values.
T = Trace of Precipitation, MM = Missing Value Source: NWS Daily Summary

Daily Weather History Graph

Daily Weather History Graph

Search for Another Location

Airport or City:

Trip Planner

Search our weather history database for the weather conditions in past years. The results will help you decide how hot, cold, wet, or windy it might be!

Date:

Astronomy

Aug. 23, 2014 Rise Set
Actual Time 6:16 AM PDT 8:11 PM PDT
Civil Twilight 5:43 AM PDT 8:44 PM PDT
Nautical Twilight 5:01 AM PDT 9:25 PM PDT
Astronomical Twilight 4:15 AM PDT 10:11 PM PDT
Moon 4:35 AM PDT (8/23) 6:59 PM PDT (8/23)
Length of Visible Light 15h 01m
Length of Day
13h 54m
Waning Crescent, 3% of the Moon is Illuminated
Aug 23
Waning Crescent
Aug 25
New
Sep 2
First Quarter
Sep 8
Full
Sep 15
Last Quarter

Hourly Weather History & Observations

Time (PDT) Temp. Dew Point Humidity Pressure Visibility Wind Dir Wind Speed Gust Speed Precip Events Conditions
12:53 AM 48.9 °F 48.0 °F 97% 30.10 in 8.0 mi Calm Calm - N/A   Clear
2:53 AM 51.1 °F 48.9 °F 92% 30.12 in 8.0 mi Calm Calm - N/A   Clear
3:27 AM 48.9 °F 48.0 °F 97% 30.13 in 6.0 mi Calm Calm - N/A   Scattered Clouds
3:53 AM 50.0 °F 48.9 °F 96% 30.13 in 7.0 mi Calm Calm - N/A   Partly Cloudy
4:16 AM 48.9 °F 48.0 °F 97% 30.13 in 7.0 mi Calm Calm - N/A   Mostly Cloudy
4:53 AM 51.1 °F 50.0 °F 96% 30.14 in 1.8 mi Calm Calm - N/A   Overcast
5:03 AM 51.1 °F 50.0 °F 96% 30.14 in 0.2 mi SE 3.5 mph - N/A Fog Fog
5:53 AM 51.1 °F 50.0 °F 96% 30.14 in 0.2 mi Calm Calm - N/A Fog Fog
6:53 AM 51.1 °F 50.0 °F 96% 30.15 in 0.2 mi Calm Calm - N/A Fog Fog
7:53 AM 51.1 °F 51.1 °F 100% 30.16 in 0.2 mi Calm Calm - N/A Fog Fog
8:13 AM 52.0 °F 52.0 °F 100% 30.16 in 2.0 mi Calm Calm - N/A   Mostly Cloudy
8:32 AM 53.1 °F 53.1 °F 100% 30.17 in 0.8 mi Calm Calm - N/A   Mostly Cloudy
8:53 AM 54.0 °F 53.1 °F 97% 30.17 in 0.2 mi Calm Calm - N/A Fog Fog
9:20 AM 54.0 °F 53.1 °F 97% 30.17 in 2.0 mi Calm Calm - N/A   Mostly Cloudy
9:53 AM 57.0 °F 53.1 °F 87% 30.17 in 10.0 mi ESE 3.5 mph - N/A   Clear
10:53 AM 64.0 °F 54.0 °F 70% 30.15 in 10.0 mi ESE 3.5 mph - N/A   Clear
11:53 AM 66.9 °F 55.0 °F 66% 30.14 in 10.0 mi ESE 3.5 mph - N/A   Clear
12:53 PM 66.9 °F 55.0 °F 66% 30.13 in 10.0 mi SE 4.6 mph - N/A   Clear
2:53 PM 72.0 °F 55.0 °F 55% 30.10 in 10.0 mi Calm Calm - N/A   Clear
3:53 PM 72.0 °F 55.0 °F 55% 30.08 in 10.0 mi SE 3.5 mph - N/A   Clear
4:53 PM 71.1 °F 55.0 °F 57% 30.07 in 10.0 mi SW 5.8 mph - N/A   Clear
5:53 PM 68.0 °F 54.0 °F 61% 30.05 in 10.0 mi SW 6.9 mph - N/A   Clear
6:53 PM 66.9 °F 54.0 °F 63% 30.04 in 10.0 mi SSW 4.6 mph - N/A   Clear
7:53 PM 57.0 °F 52.0 °F 83% 30.03 in 10.0 mi Calm Calm - N/A   Clear
8:53 PM 54.0 °F 51.1 °F 90% 30.03 in 10.0 mi Calm Calm - N/A   Clear
9:53 PM 53.1 °F 51.1 °F 93% 30.03 in 10.0 mi Calm Calm - N/A   Clear
10:53 PM 51.1 °F 50.0 °F 96% 30.02 in 8.0 mi Calm Calm - N/A   Clear
11:53 PM 51.1 °F 48.9 °F 92% 30.00 in 7.0 mi Calm Calm - N/A   Clear